Location: Asheville, NC
(35.6000°N, 82.5500°W)
Time: 16:39:43
(UTC-05:00)

NUDT-PHONESAT - Pass Details

Date: 07 January 2018
Orbit: 494 x 513 km, 97.4° (Epoch: 19 January)

Event Time Altitude Azimuth Distance (km) Brightness Sun altitude
Rises 06:20:53 0° 21° (NNE) 2,609 ? -15.8°
Reaches altitude 10° 06:23:07 10° 30° (NNE) 1,717 ? -15.4°
Maximum altitude 06:26:32 35° 98° (E) 821 ? -14.7°
Drops below altitude 10° 06:29:54 10° 166° (SSE) 1,694 ? -14.1°
Sets 06:32:05 0° 175° (S) 2,569 ? -13.6°
